Weather History for Paynesville, MN

Change the Weather History Date:

Friday, October 28, 2011

  Actual Average (KLJF) Record (KLJF)
Temperature  
Mean Temperature 40 °F -  
Max Temperature 50 °F 54 °F 74 °F (1983)
Min Temperature 30 °F 33 °F 15 °F (1967)
Degree Days  
Heating Degree Days 25    
Moisture  
Dew Point 26 °F    
Average Humidity 58    
Maximum Humidity 85    
Minimum Humidity 33    
Precipitation  
Precipitation 0.00 in - - ()
Sea Level Pressure  
Sea Level Pressure 30.03 in    
Wind  
Wind Speed 8 mph (West)    
Max Wind Speed 20 mph    
Max Gust Speed 25 mph    
Visibility 10 miles    
Events      
Averages and records for this station are not official NWS values.
T = Trace of Precipitation, MM = Missing Value Source: NWS Daily Summary

Daily Weather History Graph

Daily Weather History Graph

Search for Another Location

Airport:

Trip Planner

Search our weather history database for the weather conditions in past years. The results will help you decide how hot, cold, wet, or windy it might be!

Date:

Astronomy

Oct. 28, 2011 Rise Set
Actual Time 7:52 AM CDT 6:12 PM CDT
Civil Twilight 7:21 AM CDT 6:43 PM CDT
Nautical Twilight 6:47 AM CDT 7:17 PM CDT
Astronomical Twilight 6:12 AM CDT 7:51 PM CDT
Moon 10:17 AM CDT (10/28) 7:27 PM CDT (10/28)
Length of Visible Light 11h 21m
Length of Day
10h 20m
Waxing Crescent, 5% of the Moon is Illuminated
Oct 28
Waxing Crescent
Nov 2
First Quarter
Nov 10
Full
Nov 18
Last Quarter
Nov 25
New

Hourly Weather History & Observations

Time (CDT) Temp. Windchill Dew Point Humidity Pressure Visibility Wind Dir Wind Speed Gust Speed Precip Events Conditions
12:12 AM 37.8 °F 32.5 °F 26.2 °F 63% 30.04 in 10.0 mi SSE 6.9 mph - N/A   Clear
12:31 AM 37.6 °F 31.6 °F 25.7 °F 62% 30.04 in 10.0 mi SSE 8.1 mph - N/A   Clear
12:52 AM 37.0 °F 32.4 °F 25.7 °F 64% 30.04 in 10.0 mi SSE 5.8 mph - N/A   Clear
1:12 AM 36.7 °F 32.9 °F 25.7 °F 64% 30.03 in 10.0 mi SSE 4.6 mph - N/A   Clear
1:32 AM 36.3 °F 32.5 °F 25.3 °F 64% 30.03 in 10.0 mi SSE 4.6 mph - N/A   Clear
1:51 AM 36.5 °F 31.0 °F 23.9 °F 60% 30.03 in 10.0 mi South 6.9 mph - N/A   Scattered Clouds
2:12 AM 35.6 °F 30.7 °F 23.4 °F 61% 30.02 in 10.0 mi South 5.8 mph - N/A   Clear
2:32 AM 35.6 °F 29.9 °F 23.9 °F 62% 30.02 in 10.0 mi South 6.9 mph - N/A   Scattered Clouds
3:12 AM 35.6 °F 29.2 °F 24.4 °F 64% 30.01 in 10.0 mi South 8.1 mph - N/A   Scattered Clouds
3:32 AM 36.3 °F 30.1 °F 24.3 °F 62% 30.01 in 10.0 mi South 8.1 mph - N/A   Mostly Cloudy
3:51 AM 36.9 °F 30.1 °F 24.6 °F 61% 30.00 in 10.0 mi South 9.2 mph - N/A   Overcast
4:12 AM 37.4 °F 31.4 °F 24.8 °F 60% 30.00 in 10.0 mi SSW 8.1 mph - N/A   Overcast
4:31 AM 37.4 °F 32.8 °F 24.8 °F 60% 30.00 in 10.0 mi SSW 5.8 mph - N/A   Overcast
5:12 AM 35.4 °F 30.5 °F 26.6 °F 70% 30.01 in 10.0 mi WNW 5.8 mph - N/A   Overcast
5:32 AM 35.2 °F - 26.6 °F 71% 30.01 in 10.0 mi Calm Calm - N/A   Overcast
5:51 AM 35.6 °F 31.7 °F 27.1 °F 71% 30.01 in 10.0 mi WSW 4.6 mph - N/A   Overcast
6:12 AM 35.6 °F 31.7 °F 27.5 °F 72% 30.01 in 10.0 mi West 4.6 mph - N/A   Overcast
6:32 AM 35.2 °F 31.2 °F 28.0 °F 75% 30.01 in 10.0 mi West 4.6 mph - N/A   Overcast
6:51 AM 34.7 °F 30.6 °F 28.0 °F 77% 30.01 in 10.0 mi West 4.6 mph - N/A   Overcast
7:12 AM 32.4 °F 26.0 °F 27.1 °F 81% 30.01 in 10.0 mi West 6.9 mph - N/A   Scattered Clouds
7:32 AM 31.5 °F 24.2 °F 26.1 °F 80% 30.02 in 10.0 mi WSW 8.1 mph - N/A   Clear
7:52 AM 31.1 °F 24.5 °F 26.2 °F 82% 30.02 in 10.0 mi WSW 6.9 mph - N/A   Clear
8:12 AM 30.2 °F 23.4 °F 25.7 °F 83% 30.02 in 10.0 mi WSW 6.9 mph - N/A   Clear
8:31 AM 30.7 °F 24.9 °F 26.6 °F 85% 30.03 in 10.0 mi West 5.8 mph - N/A   Clear
8:52 AM 34.2 °F 27.5 °F 29.5 °F 83% 30.04 in 10.0 mi West 8.1 mph - N/A   Clear
9:12 AM 35.6 °F 28.0 °F 30.9 °F 83% 30.04 in 10.0 mi West 10.4 mph - N/A   Clear
9:31 AM 36.9 °F 30.7 °F 32.0 °F 83% 30.04 in 10.0 mi West 8.1 mph - N/A   Clear
9:52 AM 39.4 °F 33.2 °F 32.9 °F 78% 30.05 in 10.0 mi West 9.2 mph - N/A   Scattered Clouds
10:12 AM 40.1 °F 33.2 °F 32.9 °F 75% 30.05 in 10.0 mi WNW 11.5 mph - N/A   Scattered Clouds
10:32 AM 42.8 °F 37.5 °F 33.1 °F 69% 30.05 in 10.0 mi West 9.2 mph - N/A   Clear
10:52 AM 44.8 °F 39.9 °F 32.4 °F 62% 30.05 in 10.0 mi WNW 9.2 mph - N/A   Clear
11:12 AM 46.2 °F 41.7 °F 30.7 °F 55% 30.05 in 10.0 mi WNW 9.2 mph - N/A   Clear
11:32 AM 46.8 °F - 29.7 °F 51% 30.06 in 10.0 mi WNW 12.7 mph - N/A   Clear
12:32 PM 49.1 °F - 26.2 °F 41% 30.05 in 10.0 mi WNW 12.7 mph 18.4 mph N/A   Clear
12:52 PM 49.8 °F - 25.7 °F 39% 30.05 in 10.0 mi WNW 10.4 mph 18.4 mph N/A   Clear
1:12 PM 50.2 °F - 25.3 °F 38% 30.04 in 10.0 mi WNW 15.0 mph 21.9 mph N/A   Clear
1:32 PM 50.4 °F - 24.1 °F 36% 30.04 in 10.0 mi WNW 15.0 mph 25.3 mph N/A   Scattered Clouds
1:51 PM 50.7 °F - 23.9 °F 35% 30.04 in 10.0 mi West 13.8 mph 21.9 mph N/A   Clear
2:12 PM 50.9 °F - 22.5 °F 33% 30.03 in 10.0 mi WNW 19.6 mph 24.2 mph N/A   Clear
2:32 PM 50.2 °F - 23.5 °F 35% 30.03 in 10.0 mi West 15.0 mph 20.7 mph N/A   Clear
2:52 PM 49.8 °F - 23.7 °F 36% 30.02 in 10.0 mi NW 15.0 mph 19.6 mph N/A   Clear
3:12 PM 50.7 °F - 23.0 °F 34% 30.02 in 10.0 mi WNW 10.4 mph 21.9 mph N/A   Clear
3:32 PM 50.4 °F - 22.6 °F 34% 30.02 in 10.0 mi West 13.8 mph - N/A   Clear
3:52 PM 50.2 °F - 23.2 °F 35% 30.02 in 10.0 mi WNW 13.8 mph - N/A   Clear
4:12 PM 49.8 °F - 22.8 °F 35% 30.02 in 10.0 mi WNW 15.0 mph 19.6 mph N/A   Clear
4:32 PM 49.8 °F - 22.3 °F 34% 30.02 in 10.0 mi WNW 10.4 mph 17.3 mph N/A   Clear
4:52 PM 49.1 °F - 23.4 °F 36% 30.03 in 10.0 mi WNW 13.8 mph - N/A   Clear
5:11 PM 48.4 °F - 23.9 °F 38% 30.03 in 10.0 mi NW 8.1 mph - N/A   Clear
5:32 PM 47.8 °F - 24.4 °F 40% 30.03 in 10.0 mi WNW 9.2 mph - N/A   Clear
5:52 PM 46.6 °F - 24.8 °F 43% 30.03 in 10.0 mi WNW 8.1 mph - N/A   Clear
6:11 PM 45.0 °F 41.8 °F 24.4 °F 45% 30.03 in 10.0 mi WNW 5.8 mph - N/A   Clear
6:32 PM 42.3 °F 40.5 °F 24.4 °F 49% 30.04 in 10.0 mi WNW 3.5 mph - N/A   Clear
6:52 PM 39.4 °F 37.2 °F 24.3 °F 55% 30.04 in 10.0 mi WNW 3.5 mph - N/A   Clear
7:11 PM 37.2 °F 34.7 °F 24.3 °F 60% 30.05 in 10.0 mi West 3.5 mph - N/A   Clear
7:32 PM 34.2 °F 31.2 °F 23.5 °F 65% 30.05 in 10.0 mi WSW 3.5 mph - N/A   Scattered Clouds
8:12 PM 32.2 °F 27.7 °F 23.7 °F 71% 30.05 in 10.0 mi WSW 4.6 mph - N/A   Clear
8:32 PM 31.1 °F 26.4 °F 23.0 °F 72% 30.04 in 10.0 mi WSW 4.6 mph - N/A   Clear
8:52 PM 30.4 °F 25.6 °F 23.0 °F 74% 30.04 in 10.0 mi WSW 4.6 mph - N/A   Clear
9:12 PM 30.2 °F 25.4 °F 23.0 °F 75% 30.04 in 10.0 mi WSW 4.6 mph - N/A   Clear
9:32 PM 29.3 °F 24.3 °F 23.0 °F 77% 30.04 in 10.0 mi WSW 4.6 mph - N/A   Clear
9:52 PM 29.3 °F 24.3 °F 23.0 °F 77% 30.04 in 10.0 mi WSW 4.6 mph - N/A   Clear
10:12 PM 28.4 °F 22.2 °F 22.1 °F 77% 30.04 in 10.0 mi WSW 5.8 mph - N/A   Clear
10:32 PM 29.1 °F 23.0 °F 22.8 °F 77% 30.04 in 10.0 mi WSW 5.8 mph - N/A   Clear
10:52 PM 26.4 °F 19.8 °F 21.7 °F 82% 30.04 in 10.0 mi WSW 5.8 mph - N/A   Clear
11:12 PM 28.4 °F 22.2 °F 23.0 °F 80% 30.04 in 10.0 mi WSW 5.8 mph - N/A   Clear
11:32 PM 27.7 °F 21.3 °F 22.8 °F 82% 30.04 in 10.0 mi WSW 5.8 mph - N/A   Clear
11:52 PM 27.9 °F 21.5 °F 23.0 °F 82% 30.04 in 10.0 mi WSW 5.8 mph - N/A   Clear